User: anonymous   Login
Location: Unspecified
(0.0000°N, 0.0000°E)
Time: 07:31:26
(UTC+00:00)
Language:

Brasilsat 1 - Orbit

View from above orbital plane
View from above orbital plane
View from above satellite
View from above satellite

Ground track
Ground track

The orbit data is extracted from the following two-line orbital elements,

1 15561U 85015B   19078.43035378 +.00000065 +00000-0 +00000-0 0  9996
2 15561 015.3076 006.6933 0008835 314.2126 235.9290 00.99546927100251
Epoch (UTC): 19 March 2019 10:19:42
Eccentricity: 0.0008835
inclination: 15.3076°
perigee height: 35953 km
apogee height: 36028 km
right ascension of ascending node: 6.6933°
argument of perigee: 314.2126°
revolutions per day: 0.99546927
mean anomaly at epoch: 235.9290°
orbit number at epoch: 10025

The dashed part of the orbit path shows where the satellite is in the earth's shadow,  

DLR